WetterOnline ( https://www.wetteronline.de )

Wetter aktuell Garmisch-Partenkirchen

Aktuelles Wetter: Garmisch-Partenkirchen (719m)

6-stündlich | Neueste Meldungen
Ortszeit Temperatur Wetter
Do, 23.01. 7:00 -8.3° C wolkenlos
Do, 23.01. 1:00 -4.3° C Nebel
Mi, 22.01. 19:00 -3.7° C wolkenlos
Mi, 22.01. 13:00 4.6° C wolkenlos
Mi, 22.01. 7:00 -8.0° C leicht bewölkt
Mi, 22.01. 1:00 -7.8° C fast wolkenlos
Di, 21.01. 19:00 -6.3° C wolkenlos
Di, 21.01. 13:00 0.9° C wolkenlos
Ortszeit Temperatur Wetter
Do, 23.01. 12:30 -2.7° C fast wolkenlos
Do, 23.01. 12:20 -2.7° C fast wolkenlos
Do, 23.01. 12:10 -3.2° C fast wolkenlos
Do, 23.01. 12:00 -3.6° C fast wolkenlos
Do, 23.01. 11:50 -3.6° C fast wolkenlos
Do, 23.01. 11:40 -3.7° C fast wolkenlos
Do, 23.01. 11:30 -4.4° C wolkig
Do, 23.01. 11:00 -4.9° C fast wolkenlos
Do, 23.01. 10:30 -5.4° C wolkenlos
Do, 23.01. 10:00 -5.6° C wolkenlos
Do, 23.01. 9:30 -8.0° C wolkenlos
Do, 23.01. 9:00 -8.0° C wolkenlos
Ortszeit Relative Feuchte Sichtweite
Do, 23.01. 7:00 91% 30 km
Do, 23.01. 1:00 97% 0.4 km
Mi, 22.01. 19:00 93% 13 km
Mi, 22.01. 13:00 59% >70 km
Mi, 22.01. 7:00 91% 60 km
Mi, 22.01. 1:00 92% 25 km
Di, 21.01. 19:00 93% 13 km
Di, 21.01. 13:00 60% 30 km
Ortszeit Relative Feuchte Sichtweite
Do, 23.01. 12:30 78% 15 km
Do, 23.01. 12:20 78% -
Do, 23.01. 12:10 79% -
Do, 23.01. 12:00 82% 11 km
Do, 23.01. 11:50 82% -
Do, 23.01. 11:40 81% -
Do, 23.01. 11:30 85% 13 km
Do, 23.01. 11:00 88% 11 km
Do, 23.01. 10:30 88% 13 km
Do, 23.01. 10:00 92% 26 km
Do, 23.01. 9:30 91% 35 km
Do, 23.01. 9:00 91% 40 km
Ortszeit Niederschlagsmenge Niederschlagsart
Do, 23.01. 7:00 0.0 l/m2 in 12 Std. -
Do, 23.01. 1:00 0.0 l/m2 in 6 Std. -
Mi, 22.01. 19:00 0.0 l/m2 in 12 Std. -
Mi, 22.01. 13:00 0.0 l/m2 in 6 Std. -
Mi, 22.01. 7:00 0.0 l/m2 in 12 Std. -
Mi, 22.01. 1:00 0.0 l/m2 in 6 Std. -
Di, 21.01. 19:00 0.0 l/m2 in 12 Std. -
Di, 21.01. 13:00 0.0 l/m2 in 6 Std. -
Ortszeit Niederschlagsmenge Niederschlagsart
Do, 23.01. 12:30 0.0 l/m2 in 1 Std. -
Do, 23.01. 12:20 keine Meldung -
Do, 23.01. 12:10 keine Meldung -
Do, 23.01. 12:00 0.0 l/m2 in 1 Std. -
Do, 23.01. 11:50 keine Meldung -
Do, 23.01. 11:40 keine Meldung -
Do, 23.01. 11:30 0.0 l/m2 in 1 Std. -
Do, 23.01. 11:00 0.0 l/m2 in 1 Std. -
Do, 23.01. 10:30 0.0 l/m2 in 1 Std. -
Do, 23.01. 10:00 0.0 l/m2 in 1 Std. -
Do, 23.01. 9:30 0.0 l/m2 in 1 Std. -
Do, 23.01. 9:00 0.0 l/m2 in 1 Std. -
Ortszeit Stärke Spitze Richtung
km/h Bft. km/h Grad Sektor
Do, 23.01. 7:00 2 1 13 210° SW
Do, 23.01. 1:00 7 2 18 80° O
Mi, 22.01. 19:00 4 1 25 240° SW
Mi, 22.01. 13:00 7 2 11 170° S
Mi, 22.01. 7:00 6 1 9 220° SW
Mi, 22.01. 1:00 4 1 7 220° SW
Di, 21.01. 19:00 4 1 14 210° SW
Di, 21.01. 13:00 7 2 11 80° O
Ortszeit Stärke Spitze Richtung
km/h Bft. km/h Grad Sektor
Do, 23.01. 12:30 7 2 11 80° O
Do, 23.01. 12:20 7 2 - 80° O
Do, 23.01. 12:10 7 2 - 90° O
Do, 23.01. 12:00 6 1 11 90° O
Do, 23.01. 11:50 6 1 - 90° O
Do, 23.01. 11:40 4 1 - 100° O
Do, 23.01. 11:30 6 1 11 90° O
Do, 23.01. 11:00 7 2 11 90° O
Do, 23.01. 10:30 6 1 9 100° O
Do, 23.01. 10:00 4 1 7 90° O
Do, 23.01. 9:30 2 1 4 210° SW
Do, 23.01. 9:00 0 0 4 - -
Ortszeit Untergrenze Bedeckung Gattung
total tief tief mittel hoch
Do, 23.01. 7:00 - 0/8 0/8 - - -
Do, 23.01. 1:00 30 m 6/8 6/8 - - -
Mi, 22.01. 19:00 - 0/8 0/8 - - -
Mi, 22.01. 13:00 - 0/8 0/8 - - -
Mi, 22.01. 7:00 6900 m 3/8 3/8 - - -
Mi, 22.01. 1:00 8100 m 2/8 0/8 - - -
Di, 21.01. 19:00 - 0/8 0/8 - - -
Di, 21.01. 13:00 - 0/8 0/8 - - -
Ortszeit Bedeckungsgrad in Achtel und Wolkenuntergrenze
Do, 23.01. 12:30 1(60m)
Do, 23.01. 12:20 1(60m)
Do, 23.01. 12:10 1(90m)
Do, 23.01. 12:00 1(90m)
Do, 23.01. 11:50 1(90m)
Do, 23.01. 11:40 1(60m)
Do, 23.01. 11:30 6(60m)
Do, 23.01. 11:00 3(30m)
Do, 23.01. 10:30 keine Wolken
Do, 23.01. 10:00 keine Wolken
Do, 23.01. 9:30 keine Wolken
Do, 23.01. 9:00 keine Wolken
Ortszeit Luftdruck NN (hPa) Tendenz (hPa in 3 Std.)
Do, 23.01. 7:00 1037 - 1,2
Do, 23.01. 1:00 1038 - 0,3
Mi, 22.01. 19:00 1037 + 1,2
Mi, 22.01. 13:00 1033 - 2,4
Mi, 22.01. 7:00 1039 - 0,5
Mi, 22.01. 1:00 1041 - 0,8
Di, 21.01. 19:00 1042 - 0,7
Di, 21.01. 13:00 1041 - 1,4
Ortszeit Luftdruck NN (hPa) Tendenz (hPa in 3 Std.)
Do, 23.01. 12:30 1032 - 1,5
Do, 23.01. 12:20 1032 keine Meldung
Do, 23.01. 12:10 1033 keine Meldung
Do, 23.01. 12:00 1033 - 1,2
Do, 23.01. 11:50 1033 keine Meldung
Do, 23.01. 11:40 1033 keine Meldung
Do, 23.01. 11:30 1034 - 1,0
Do, 23.01. 11:00 1034 - 0,7
Do, 23.01. 10:30 1035 - 0,5
Do, 23.01. 10:00 1035 - 0,7
Do, 23.01. 9:30 1036 - 0,6
Do, 23.01. 9:00 1036 - 0,6
Ortszeit Schneehöhe (cm)
Do, 23.01. 7:00 1
Do, 23.01. 1:00 1
Mi, 22.01. 19:00 1
Mi, 22.01. 13:00 -
Mi, 22.01. 7:00 2
Mi, 22.01. 1:00 2
Di, 21.01. 19:00 2
Di, 21.01. 13:00 2
Ortszeit Schneehöhe (cm)
Do, 23.01. 12:30 0
Do, 23.01. 12:20 0
Do, 23.01. 12:10 0
Do, 23.01. 12:00 0
Do, 23.01. 11:50 0
Do, 23.01. 11:40 0
Do, 23.01. 11:30 1
Do, 23.01. 11:00 1
Do, 23.01. 10:30 1
Do, 23.01. 10:00 1
Do, 23.01. 9:30 1
Do, 23.01. 9:00 1
Link zu dieser Seite / Seite empfehlen

Das Wetter in ...